SL-16 DEB, 39911

Orbit data source: Space-Track

SL-16 DEB, 39911 is space debris in LEO originally from a launch on Fri, 26 Mar 1993 UTC launched from the Tyuratam Missile And Space Complex (TTMTR). Debris objects in space refer to the collection of defunct objects orbiting the Earth. Examples of debris include non-operational satellites, rocket bodies, and fragments generated from explosions, collisions, or faulty payload assembly.

Loading next visibility...
Identifier
39911, 1993-016CM
Orbit
LEO
Country
Flag of CISCIS
Related business
Manufacturer
Unknown
Mission
Spacecraft
Bus & Motor
Unknown
Mass
Unknown
Launch date (UTC)
1993-03-26 (33 years ago)
Launch vehicle
Unknown
Launch site
Tyuratam Missile And Space Complex (TTMTR)
Object type
Payload
Rocket body
Debris
Shape & HBR
Unknown shape, 0.1 m
Radar Cross Section
Medium (>0.1 m² and <1 m²)

Expand to show TLE details & history
Last TLE update: 1 day ago

TLE from 1 day ago
0 SL-16 DEB
1 39911U 93016CM  26254.40187472  .00000167  00000-0  19523-3 0  9991
2 39911  71.0016 162.5699 0195646  93.1987 269.1517 13.73513406615114
Epoch: 2026-09-11T09:38Z
TLE epoch observation values (Epoch: 2026-09-11T09:38:41.975Z)
Latitude
-0.00004°
Longitude
27.46924°
Altitude
994.29 km
Speed
7.352 km/s
True Right ascension
10h 50m 16s
True Declination
0° 00' 00"
Sunlit
Object was in daylight at epoch
Visualization orbit readout
Latitude
Unknown
Longitude
Unknown
Altitude
Unknown
Speed
Unknown
Apparent Right ascension
Unknown
Apparent Declination
Unknown
Sunlit
N/A
Visualization observer readout
Local Sidereal Time
08:48:56
Azimuth
Unknown
Elevation
Unknown
Doppler factor
Unknown
Orbital elements
Apogee altitude
1,129.005 km
Perigee altitude
840.893 km
Semi-major axis
7,363.086 km
Eccentricity
0.01956
Inclination
71.0016°
RAAN
162.5699°
Arg. of periapsis
93.1987°
True anomaly
266.91139°
Mean anomaly
269.1517°
Eccentric anomaly
268.03139°
Mean motion
3.43521 °/min
Orbital period
104.8 mins
BSTAR
0.00019523
Loading maneuver chart data...
Computing Atmospheric mass density...
Loading historical data...
Loading historical data...
Loading historical data...
Loading historical data...
Loading historical data...
Loading historical data...
Loading historical data...

Documentation

Showing up to 5 results
|